KPF674 LSZH-LOWW

Flight info

Callsign KPF674
Flight time 0h 52m
Altitude 30000
Route DEGES Z2 DORAP/N0467F310 Z2 XEBIX N871 BADVI L725 INPUL DCT NEMAL NEMAL2W
Aircraft CL60/M-SBDE1E2E3FGHIJ1J4J5J7M3RWXYZ/LB1V1D1

Departure

Time 2026-05-04 16:38
Airport Zürich Airport (LSZH)

Arrival

Time 2026-05-04 17:30
Airport Vienna International Airport (LOWW)
Time Latitude Longitude Altitude Speed Heading
2026-05-04 16:13 47.45396 8.57267 1427 ft 0 kts 185°
2026-05-04 16:33 47.45393 8.57267 1427 ft 2 kts 186°
2026-05-04 16:33 47.45431 8.57238 1427 ft 5 kts 332°
2026-05-04 16:34 47.45504 8.57093 1425 ft 11 kts 274°
2026-05-04 16:34 47.45525 8.57010 1425 ft 6 kts 345°
2026-05-04 16:35 47.45583 8.56643 1419 ft 14 kts 276°
2026-05-04 16:35 47.45658 8.56273 1413 ft 12 kts 359°
2026-05-04 16:36 47.45755 8.56288 1412 ft 15 kts
2026-05-04 16:36 47.45970 8.56315 1410 ft 10 kts
2026-05-04 16:37 47.46125 8.56341 1409 ft 11 kts
2026-05-04 16:37 47.46211 8.56326 1408 ft 13 kts 330°
2026-05-04 16:37 47.46387 8.56094 1402 ft 71 kts 316°
2026-05-04 16:38 47.47863 8.54095 2090 ft 181 kts 316°
2026-05-04 16:39 47.51172 8.50459 5025 ft 225 kts 330°
2026-05-04 16:39 47.54172 8.49284 7375 ft 240 kts 18°
2026-05-04 16:40 47.56059 8.52832 9732 ft 235 kts 95°
2026-05-04 16:40 47.55720 8.57630 11951 ft 248 kts 99°
2026-05-04 16:41 47.56169 8.63130 12989 ft 314 kts 79°
2026-05-04 16:41 47.55056 8.73298 14758 ft 364 kts 135°
2026-05-04 16:42 47.48876 8.80171 17511 ft 381 kts 141°
2026-05-04 16:43 47.46057 8.86868 19227 ft 402 kts 108°
2026-05-04 16:43 47.44869 8.95036 20731 ft 415 kts 104°
2026-05-04 16:43 47.44268 8.99266 21495 ft 420 kts 104°
2026-05-04 16:44 47.41798 9.16493 24291 ft 439 kts 103°
2026-05-04 16:45 47.42049 9.25547 25621 ft 453 kts 79°
2026-05-04 16:46 47.44163 9.39358 27384 ft 463 kts 79°
2026-05-04 16:46 47.45576 9.48715 28389 ft 469 kts 79°
2026-05-04 16:47 47.46973 9.58165 29330 ft 474 kts 82°
2026-05-04 16:47 47.46869 9.67860 30318 ft 470 kts 97°
2026-05-04 16:48 47.46086 9.82165 32042 ft 463 kts 97°
2026-05-04 16:48 47.45821 9.86944 32571 ft 461 kts 97°
2026-05-04 16:49 47.45295 9.96297 33489 ft 459 kts 97°
2026-05-04 16:49 47.44758 10.05701 34311 ft 458 kts 97°
2026-05-04 16:50 47.44216 10.15047 35044 ft 456 kts 97°
2026-05-04 16:50 47.43270 10.24301 35554 ft 456 kts 103°
2026-05-04 16:51 47.42013 10.33555 36052 ft 458 kts 103°
2026-05-04 16:51 47.41404 10.38144 36307 ft 459 kts 101°
2026-05-04 16:51 47.41052 10.47582 36871 ft 462 kts 87°
2026-05-04 16:52 47.42243 10.56977 37090 ft 473 kts 72°
2026-05-04 16:53 47.45610 10.70797 37058 ft 480 kts 71°
2026-05-04 16:54 47.50125 10.89361 37065 ft 478 kts 71°
2026-05-04 16:55 47.56805 11.17131 37075 ft 477 kts 71°
2026-05-04 16:56 47.62298 11.40245 37084 ft 475 kts 72°
2026-05-04 16:57 47.65204 11.54342 37048 ft 475 kts 73°
2026-05-04 16:58 47.69019 11.73086 37026 ft 475 kts 74°
2026-05-04 17:00 47.74147 12.01434 36997 ft 473 kts 79°
2026-05-04 17:01 47.77463 12.25309 37013 ft 473 kts 79°
2026-05-04 17:02 47.80091 12.44519 37029 ft 473 kts 79°
2026-05-04 17:03 47.82038 12.58905 36994 ft 473 kts 79°
2026-05-04 17:03 47.83949 12.73341 36943 ft 472 kts 80°
2026-05-04 17:04 47.84998 12.82976 36836 ft 474 kts 82°
2026-05-04 17:04 47.86017 12.92710 36356 ft 475 kts 82°
2026-05-04 17:05 47.87023 13.02390 35852 ft 473 kts 82°
2026-05-04 17:05 47.88022 13.12083 35353 ft 473 kts 82°
2026-05-04 17:06 47.89014 13.21814 34845 ft 472 kts 83°
2026-05-04 17:06 47.89286 13.26668 34608 ft 471 kts 89°
2026-05-04 17:07 47.89391 13.36413 34103 ft 471 kts 90°
2026-05-04 17:07 47.89424 13.39683 33924 ft 472 kts 90°
2026-05-04 17:07 47.89488 13.46238 33585 ft 472 kts 90°
2026-05-04 17:07 47.89533 13.51117 33356 ft 472 kts 90°
2026-05-04 17:08 47.89576 13.56048 33090 ft 473 kts 89°
2026-05-04 17:08 47.89653 13.65475 32631 ft 474 kts 90°
2026-05-04 17:08 47.89690 13.70491 32363 ft 475 kts 90°
2026-05-04 17:09 47.89725 13.75427 32114 ft 475 kts 90°
2026-05-04 17:09 47.89758 13.80411 31854 ft 476 kts 90°
2026-05-04 17:09 47.89788 13.85332 31608 ft 476 kts 90°
2026-05-04 17:10 47.89843 13.95164 31095 ft 478 kts 90°
2026-05-04 17:10 47.89910 14.10115 29616 ft 474 kts 89°
2026-05-04 17:11 47.89927 14.14987 29107 ft 470 kts 89°
2026-05-04 17:11 47.89943 14.19870 28609 ft 466 kts 89°
2026-05-04 17:11 47.89967 14.29444 27610 ft 459 kts 90°
2026-05-04 17:12 47.89976 14.34189 27115 ft 456 kts 90°
2026-05-04 17:12 47.89988 14.43610 26124 ft 450 kts 90°
2026-05-04 17:13 47.89991 14.57421 24623 ft 440 kts 90°
2026-05-04 17:14 47.89979 14.70956 23144 ft 431 kts 90°
2026-05-04 17:14 47.89972 14.75456 22640 ft 428 kts 90°
2026-05-04 17:14 47.89952 14.84263 21639 ft 422 kts 91°
2026-05-04 17:15 47.89939 14.88611 21129 ft 419 kts 91°
2026-05-04 17:15 47.89910 14.97240 20119 ft 412 kts 91°
2026-05-04 17:16 47.89875 15.05690 19116 ft 405 kts 91°
2026-05-04 17:16 47.89983 15.18126 17648 ft 395 kts 79°
2026-05-04 17:17 47.90915 15.21964 17168 ft 393 kts 64°
2026-05-04 17:17 47.94635 15.32863 15637 ft 386 kts 63°
2026-05-04 17:18 47.95834 15.36397 15129 ft 384 kts 63°
2026-05-04 17:18 47.98238 15.43498 14405 ft 381 kts 63°
2026-05-04 17:19 48.00598 15.50491 13753 ft 371 kts 63°
2026-05-04 17:19 48.02879 15.57269 13112 ft 360 kts 64°
2026-05-04 17:20 48.05086 15.63844 12459 ft 346 kts 64°
2026-05-04 17:20 48.07213 15.70202 11906 ft 339 kts 64°
2026-05-04 17:20 48.08252 15.73311 11469 ft 334 kts 64°
2026-05-04 17:21 48.10298 15.79450 10605 ft 324 kts 65°
2026-05-04 17:21 48.12249 15.85315 9731 ft 313 kts 65°
2026-05-04 17:22 48.13220 15.88237 9333 ft 300 kts 65°
2026-05-04 17:22 48.14147 15.91030 9003 ft 298 kts 65°
2026-05-04 17:23 48.16916 15.99401 7780 ft 292 kts 65°
2026-05-04 17:23 48.17805 16.02093 7394 ft 290 kts 65°
2026-05-04 17:23 48.19593 16.07505 6634 ft 287 kts 65°
2026-05-04 17:24 48.20482 16.10150 6240 ft 285 kts 65°
2026-05-04 17:24 48.23125 16.18005 5145 ft 273 kts 72°
2026-05-04 17:25 48.23254 16.20676 5018 ft 249 kts 109°
2026-05-04 17:25 48.21331 16.24766 4645 ft 246 kts 115°
2026-05-04 17:26 48.20034 16.29373 4041 ft 237 kts 122°
2026-05-04 17:26 48.17923 16.35909 3140 ft 219 kts 119°
2026-05-04 17:27 48.16684 16.39749 2582 ft 193 kts 120°
2026-05-04 17:27 48.15574 16.43182 2094 ft 172 kts 121°
2026-05-04 17:28 48.14628 16.46121 1662 ft 137 kts 121°
2026-05-04 17:29 48.13483 16.49626 1184 ft 125 kts 121°
2026-05-04 17:29 48.12336 16.53173 677 ft 124 kts 119°
2026-05-04 17:30 48.11824 16.55084 606 ft 14 kts 64°
2026-05-04 17:31 48.11952 16.54992 606 ft 20 kts 295°
2026-05-04 17:31 48.12165 16.54337 607 ft 17 kts 295°
2026-05-04 17:32 48.12296 16.53935 607 ft 25 kts 295°
2026-05-04 17:33 48.12523 16.53637 607 ft 14 kts 25°
2026-05-04 17:33 48.12629 16.53709 607 ft 18 kts 21°
2026-05-04 17:34 48.12767 16.53895 607 ft 8 kts 84°
2026-05-04 17:34 48.12817 16.53936 606 ft 7 kts 324°
2026-05-04 17:35 48.12823 16.53923 607 ft 0 kts 295°